Weather in Konstantinovka

Russia / Republic of Tatarstan     55°48′37″N   49°15′43″E
temp.,
°C
wind,
m/s
gust,
m/s
humid.,
%
clouds,
%
prec.,
mm/h
press.,
hPa
HPBL,
m
20 april, tue
tue2000:00+1e614470 0.0 1031381
03:000e511530 0.0 1031266
06:00+1e510560 0.0 1032302
09:00+6ese710350 0.0 10321060
12:00+8ese79280 0.0 10311350
15:00+9ese79250 0.0 10291458
18:00+7ese593554 0.0 1029384
21:00+4ese5134671 0.0 1028331
21 april, wed
wed2100:00+3ese71646100 0.0 1027476
03:00+3se71749100 0.0 1026617
06:00+3se91849100 0.0 1025685
09:00+5se91645100 0.0 1024875
12:00+5se91647100 0.1 1023992
15:00+3sse101878100 1.1 1023877
18:00+1sse81897100 2.6 1022730
21:00+1sse81798100 8.9 1022663
22 april, thu
thu2200:00+1sse81598100 1.1 1021636
03:00+2sse61399100 1.1 1022473
06:00+3s61299100 0.1 1023424
09:00+3sse51299100 1.8 1024484
12:00+5s51198100 0.1 1024464
15:00+8s6984100 0.1 1024863
18:00+7sse5128856 0.0 1023440
21:00+5sse6139494 0.2 1024387
23 april, fri
fri2300:00+4sse5119791 0.2 1024390
03:00+4sse5996100 0.3 1025306
06:00+4sse359394 0.0 1025204
09:00+8s338391 0.0 1026508
12:00+12sse236859 0.0 1025977
15:00+13se436022 0.0 10251044
18:00+11ese35715 0.0 1024157
21:00+8ese3585100 0.0 102488
24 april, sat
sat2400:00+7e2285100 0.0 102324
03:00+6e3891100 0.0 1022185
06:00+6ene4986100 0.0 1020325
09:00+9e4673100 0.0 1018629
12:00+11ene4565100 0.0 10161150
15:00+10ese5675100 0.1 1015718
18:00+7e2587100 0.0 1014503
21:00+7ese2393100 0.1 1012245